Location: Freemans Gardens
(41.6414°N, 83.6077°W)
Time: 03:13:17
(UTC+00:00)

NOSS 3-3 (C) - Pass Details

Date: 29 October 2020
Orbit: 825 x 1387 km, 63.4° (Epoch: 22 November)

Event Time Altitude Azimuth Distance (km) Brightness Sun altitude
Rises 23:23:32 0° 200° (SSW) 3,373 7.3 -10.2°
Reaches altitude 10° 23:25:55 10° 197° (SSW) 2,473 6.5 -10.6°
Maximum altitude 23:31:29 58° 119° (ESE) 1,047 3.9 -11.6°
Drops below altitude 10° 23:37:43 10° 42° (NE) 2,764 5.9 -12.8°
Enters shadow 23:38:38 - 40° (NE) 3,103 6.2 -12.9°
